Location: Doughton Park
(36.4224°N, 81.1835°W)
Time: 15:24:01
(UTC-05:00)

Amateur Radio Satellites - All Passes

Search period start: 22 January 2017 14:54
Search period end: 23 January 2017 14:54
Location: Doughton Park, 36.4224°N, 81.1835°W

Satellite Date Start Highest point End Downlink Frequencies (MHz)
Time Altitude Azimuth
AIST 1 22 Jan 14:57:17 15:00:27 19° 285° (WNW) 15:03:38
BEESAT 3 22 Jan 15:10:50 15:14:07 27° 113° (ESE) 15:17:26 437.485
Cosmos 2504 22 Jan 15:11:15 15:19:59 86° 276° (W) 15:28:13 435.465 / 435.565
JUGNU 22 Jan 15:12:35 15:15:52 15° 181° (S) 15:19:08 437.505
YUBILEINY 22 Jan 15:24:03 15:32:17 43° 284° (WNW) 15:40:36 435.215
Cosmos 2491 22 Jan 15:24:16 15:29:55 19° 280° (W) 15:35:35 435.465 / 435.565
ITUPSAT 1 22 Jan 15:32:26 15:37:12 62° 286° (WNW) 15:41:56 437.325
O/OREOS (USA 219) 22 Jan 15:34:09 15:38:08 30° 63° (ENE) 15:42:07 437.305
DANDE 22 Jan 15:38:02 15:46:04 69° 265° (W) 15:54:14 436.750
MOZHAYETS 4 22 Jan 15:40:33 15:45:04 49° 100° (E) 15:49:33
ITAMSAT 1 22 Jan 15:42:16 15:46:41 29° 263° (W) 15:51:09 435.822/435.867
M-CUBED/EXP-1 PRIME 22 Jan 15:59:32 16:01:37 16° 100° (E) 16:03:43 437.505
BEESAT 2 22 Jan 16:00:13 16:03:54 41° 115° (ESE) 16:07:39 435.950
KKS-1 22 Jan 16:04:00 16:07:38 24° 96° (E) 16:11:15 437.445
BEESAT 22 Jan 16:06:05 16:10:07 28° 291° (WNW) 16:14:09 436.000
SWISSCUBE 22 Jan 16:08:10 16:11:58 24° 292° (WNW) 16:15:46 437.505
HORYU 2 22 Jan 16:09:57 16:12:50 17° 66° (ENE) 16:15:43 437.375
CUSAT 1 22 Jan 16:11:26 16:15:02 14° 281° (WNW) 16:18:29 437.405
GOMX 1 22 Jan 16:15:16 16:19:10 21° 68° (ENE) 16:22:58 467.674
BRITE-PL 22 Jan 16:21:19 16:26:54 60° 74° (ENE) 16:32:25 437.365/2234.400
SO-50 22 Jan 16:29:31 16:33:58 60° 57° (ENE) 16:38:22 436.795
CUBESAT XI-V 22 Jan 16:33:01 16:36:55 26° 95° (E) 16:40:46 437.345
AUBIESAT-1 22 Jan 16:33:18 16:36:24 37° 104° (ESE) 16:39:28 437.475
DOVE 4 22 Jan 16:43:48 16:46:22 14° 67° (ENE) 16:48:52 437.250
AO-7 22 Jan 16:43:50 16:50:09 23° 265° (W) 16:56:31 29.400- 29.500
SRMSAT 22 Jan 16:46:21 16:49:40 15° 176° (S) 16:52:58 437.500
BEESAT 3 22 Jan 16:48:37 16:51:41 22° 308° (NW) 16:54:48 437.485
STARS 22 Jan 16:50:17 16:54:18 35° 98° (E) 16:58:19 437.465
JUGNU 22 Jan 17:02:12 17:04:03 11° 191° (S) 17:05:54 437.505
CUTE-I 22 Jan 17:09:22 17:13:53 29° 68° (ENE) 17:18:26 437.470
Cosmos 2504 22 Jan 17:09:46 17:14:21 15° 294° (WNW) 17:18:50 435.465 / 435.565
O/OREOS (USA 219) 22 Jan 17:13:53 17:17:19 22° 259° (WSW) 17:20:46 437.305
LilacSat-2 22 Jan 17:15:53 17:19:06 27° 72° (ENE) 17:22:22 437.200
MOZHAYETS 4 22 Jan 17:19:08 17:21:46 15° 294° (WNW) 17:24:25
DANDE 22 Jan 17:24:54 17:27:31 12° 281° (W) 17:30:08 436.750
M-CUBED/EXP-1 PRIME 22 Jan 17:33:35 17:36:05 20° 295° (WNW) 17:38:33 437.505
BEESAT 2 22 Jan 17:39:21 17:41:52 16° 311° (NW) 17:44:25 435.950
KKS-1 22 Jan 17:40:26 17:44:06 26° 291° (WNW) 17:47:45 437.445
HORYU 2 22 Jan 17:44:58 17:49:03 38° 261° (W) 17:53:10 437.375
HO-68 22 Jan 17:45:23 17:50:05 19° 58° (ENE) 17:54:47 435.675
GOMX 1 22 Jan 17:51:46 17:56:55 45° 261° (W) 18:01:53 467.674
Cubesat XI-IV 22 Jan 17:52:26 17:57:43 76° 75° (ENE) 18:03:03 437.490
NOAA 15 22 Jan 17:52:41 17:57:58 81° 75° (ENE) 18:03:18 137.62
CINEMA 3 22 Jan 17:54:50 17:57:28 16° 68° (ENE) 18:00:03 145.822/145.860
BRITE-PL 22 Jan 18:02:01 18:05:37 17° 268° (W) 18:09:13 437.365/2234.400
CUBESAT XI-V 22 Jan 18:10:16 18:14:12 27° 290° (WNW) 18:18:06 437.345
SO-50 22 Jan 18:12:16 18:13:51 12° 253° (WSW) 18:15:26 436.795
NOAA 18 22 Jan 18:16:15 18:21:44 71° 74° (ENE) 18:27:12 137.9125
DOVE 4 22 Jan 18:18:42 18:23:38 56° 260° (W) 18:28:18 437.250
GONETS M04 22 Jan 18:19:01 18:23:55 16° 78° (ENE) 18:28:48
AIST 2 22 Jan 18:19:53 18:23:12 24° 111° (ESE) 18:26:33 435.215
STARS 22 Jan 18:27:25 18:30:21 18° 293° (WNW) 18:33:18 437.465
CUTE 1.7 + AOD 2 22 Jan 18:32:07 18:35:24 22° 69° (ENE) 18:38:42 437.475
SRMSAT 22 Jan 18:34:53 18:38:03 15° 186° (S) 18:41:12 437.500
CUTE-I 22 Jan 18:49:11 18:53:49 30° 263° (W) 18:58:29 437.470
LilacSat-2 22 Jan 18:51:01 18:53:24 16° 266° (W) 18:55:48 437.200
CANX-2 22 Jan 19:00:51 19:05:01 57° 75° (ENE) 19:09:12 2200.000
SEEDS 22 Jan 19:06:59 19:10:51 36° 73° (ENE) 19:14:46 437.485
COMPASS 1 22 Jan 19:08:07 19:11:30 24° 70° (ENE) 19:14:54 437.405
STRAND 1 22 Jan 19:16:28 19:21:15 38° 98° (E) 19:26:00 437.568
AAUSAT CUBESAT 2 22 Jan 19:16:55 19:20:13 23° 70° (ENE) 19:23:33 437.432
Cosmos 2499 22 Jan 19:17:42 19:25:54 57° 92° (E) 19:33:32 435.465 / 435.565
HO-68 22 Jan 19:29:47 19:36:58 78° 255° (WSW) 19:44:13 435.675
CINEMA 3 22 Jan 19:30:10 19:34:18 39° 261° (W) 19:38:19 145.822/145.860
Cubesat XI-IV 22 Jan 19:36:50 19:38:17 11° 269° (W) 19:39:45 437.490
NOAA 15 22 Jan 19:37:56 19:38:17 10° 270° (W) 19:38:38 137.62
Oscar 11 22 Jan 19:40:44 19:43:31 17° 67° (ENE) 19:46:18 145.826/435.025
AIST 2 22 Jan 19:58:02 20:01:32 27° 307° (NW) 20:05:06 435.215
ISS 22 Jan 20:00:21 20:01:01 10° 127° (SE) 20:01:42 145.825
NOAA 18 22 Jan 20:00:26 20:02:50 13° 268° (W) 20:05:15 137.9125
CUTE 1.7 + AOD 2 22 Jan 20:07:29 20:11:04 27° 264° (W) 20:14:41 437.475
CUBEBUG 2 22 Jan 20:07:45 20:11:53 68° 259° (W) 20:16:01 437.445
GONETS M04 22 Jan 20:10:45 20:19:28 86° 276° (W) 20:28:17
DELFI C3 22 Jan 20:13:45 20:15:08 12° 66° (ENE) 20:16:30 145.870
FUNcube-1 22 Jan 20:19:10 20:23:08 49° 74° (ENE) 20:27:09 145.935
UWE-3 22 Jan 20:30:49 20:34:53 59° 259° (W) 20:38:58 435.000/436.395/437.385
HUMSAT D 22 Jan 20:34:59 20:36:14 11° 65° (ENE) 20:37:30 437.325/437.525
PRISM 22 Jan 20:41:12 20:42:35 11° 92° (E) 20:43:57 437.425
COMPASS 1 22 Jan 20:43:34 20:46:57 23° 265° (W) 20:50:20 437.405
ZACube-1 22 Jan 20:43:38 20:47:44 73° 258° (WSW) 20:51:54 437.345
SEEDS 22 Jan 20:44:04 20:46:38 16° 267° (W) 20:49:14 437.485
AAUSAT CUBESAT 2 22 Jan 20:52:08 20:55:33 24° 264° (W) 20:59:00 437.432
STRAND 1 22 Jan 20:56:11 21:00:10 23° 293° (WNW) 21:04:08 437.568
RS-15 22 Jan 20:59:26 21:00:29 10° 93° (E) 21:01:32 29.354- 29.394
Cosmos 2499 22 Jan 21:12:34 21:19:18 27° 287° (WNW) 21:25:43 435.465 / 435.565
Oscar 11 22 Jan 21:15:20 21:19:19 37° 262° (W) 21:23:21 145.826/435.025
HO-68 22 Jan 21:24:17 21:25:37 11° 271° (W) 21:26:59 435.675
ISS 22 Jan 21:33:52 21:37:05 61° 321° (NW) 21:40:18 145.825
JAS-2 22 Jan 21:40:59 21:43:31 12° 88° (E) 21:46:04 435.910
DELFI C3 22 Jan 21:45:35 21:49:27 48° 260° (W) 21:53:22 145.870
UNISAT 6 22 Jan 21:49:52 21:53:36 25° 96° (E) 21:57:21 437.425
BY70-1 22 Jan 21:51:41 21:53:32 15° 68° (ENE) 21:55:27 436.1900
FUNcube-1 22 Jan 21:58:38 21:59:39 11° 269° (W) 22:00:39 145.935
TIGRISAT 22 Jan 22:02:08 22:06:09 32° 97° (E) 22:10:14 435.000
HUMSAT D 22 Jan 22:07:20 22:11:19 52° 260° (W) 22:15:23 437.325/437.525
ESTCUBE 1 22 Jan 22:07:25 22:10:31 18° 67° (ENE) 22:13:37 437.505/2401.250
AO-85 22 Jan 22:12:53 22:16:33 38° 56° (NE) 22:20:13 145.980
GONETS M04 22 Jan 22:12:55 22:17:36 15° 296° (WNW) 22:22:20
PRISM 22 Jan 22:14:10 22:18:06 46° 287° (WNW) 22:21:59 437.425
ANTELSAT 22 Jan 22:17:47 22:22:10 52° 100° (E) 22:26:38 437.575/2403.000
CUBEBUG 1 22 Jan 22:46:07 22:49:50 27° 70° (ENE) 22:53:32 437.445
QB50P2 22 Jan 22:53:43 22:54:41 11° 92° (E) 22:55:39 145.880/145.840
50 SAT 22 Jan 22:55:53 22:57:16 12° 67° (ENE) 22:58:39 437.505
RS-15 22 Jan 22:58:47 23:10:16 63° 112° (ESE) 23:22:16 29.354- 29.394
PCSat 22 Jan 23:05:29 23:08:57 17° 104° (ESE) 23:12:24 145.827
AISAT 22 Jan 23:09:22 23:13:18 32° 71° (ENE) 23:17:15 437.250
POPSAT HIP 1 22 Jan 23:12:51 23:15:39 17° 94° (E) 23:18:27 437.405
ISS 22 Jan 23:13:03 23:14:07 11° 338° (NNW) 23:15:11 145.825
DUCHIFAT 1 22 Jan 23:20:11 23:23:03 18° 94° (E) 23:25:55 145.980
BY70-1 22 Jan 23:21:17 23:23:34 20° 265° (W) 23:25:59 436.1900
JAS-2 22 Jan 23:21:50 23:29:16 76° 103° (ESE) 23:37:07 435.910
UNISAT 6 22 Jan 23:26:28 23:30:12 26° 290° (WNW) 23:33:59 437.425
NANOSAT C BR1 22 Jan 23:26:43 23:30:08 23° 96° (E) 23:33:32 145.865
TIGRISAT 22 Jan 23:39:16 23:42:37 21° 291° (WNW) 23:46:01 435.000
VELOX 1 22 Jan 23:42:00 23:46:26 73° 76° (ENE) 23:50:52 145.980
YUBILEINY 22 Jan 23:42:39 23:47:24 15° 64° (ENE) 23:52:05 435.215
ESTCUBE 1 22 Jan 23:42:47 23:47:00 38° 262° (W) 23:51:14 437.505/2401.250
BUGSAT 1 22 Jan 23:45:32 23:46:23 11° 92° (E) 23:47:15 437.445
SPROUT 22 Jan 23:50:41 23:54:53 64° 75° (ENE) 23:59:05 437.525
AO-85 22 Jan 23:54:33 23:56:35 14° 250° (WSW) 23:58:37 145.980
ANTELSAT 22 Jan 23:56:11 23:58:26 14° 294° (WNW) 00:00:41 437.575/2403.000
UKube-1 22 Jan 23:59:14 00:03:12 36° 72° (ENE) 00:07:10 .
DX 1 23 Jan 00:05:12 00:09:30 61° 75° (ENE) 00:13:49 434.975-435.025
QB50P1 23 Jan 00:20:08 00:24:21 70° 283° (WNW) 00:28:33 145.935-145.965
BEESAT 2 23 Jan 00:21:22 00:23:28 14° 47° (NE) 00:25:32 435.950
CUBEBUG 1 23 Jan 00:22:30 00:26:01 23° 264° (W) 00:29:33 437.445
POLYITAN 1 23 Jan 00:25:13 00:29:24 60° 285° (WNW) 00:33:35 437.675
QB50P2 23 Jan 00:26:37 00:30:45 53° 285° (WNW) 00:34:52 145.880/145.840
50 SAT 23 Jan 00:26:49 00:30:06 35° 262° (W) 00:33:26 437.505
Cosmos 2491 23 Jan 00:31:05 00:35:58 16° 79° (ENE) 00:40:51 435.465 / 435.565
PHONESAT 2.4 23 Jan 00:38:27 00:40:37 49° 155° (SSE) 00:42:47 2401.200-2431.200
AISAT 23 Jan 00:46:31 00:49:47 20° 265° (W) 00:53:02 437.250
PCSat 23 Jan 00:46:32 00:51:49 55° 300° (WNW) 00:57:09 145.827
POPSAT HIP 1 23 Jan 00:47:40 00:51:28 33° 288° (WNW) 00:55:17 437.405
DUCHIFAT 1 23 Jan 00:55:01 00:58:46 32° 288° (WNW) 01:02:30 145.980
NANOSAT C BR1 23 Jan 01:02:20 01:05:44 24° 290° (WNW) 01:09:09 145.865
ITUPSAT 1 23 Jan 01:02:33 01:03:56 11° 62° (ENE) 01:05:19 437.325
AIST 1 23 Jan 01:05:22 01:09:39 78° 84° (E) 01:13:52
BEESAT 3 23 Jan 01:06:39 01:10:40 87° 246° (WSW) 01:14:39 437.485
JAS-2 23 Jan 01:08:21 01:13:35 22° 297° (WNW) 01:19:04 435.910
Cosmos 2504 23 Jan 01:08:26 01:14:24 26° 72° (ENE) 01:20:13 435.465 / 435.565
TISAT 1 23 Jan 01:08:53 01:13:01 68° 75° (ENE) 01:17:09 437.305
RS-15 23 Jan 01:12:23 01:23:23 41° 315° (NW) 01:34:50 29.354- 29.394
BUGSAT 1 23 Jan 01:18:05 01:21:59 49° 286° (WNW) 01:25:55 437.445
Oscar 19 23 Jan 01:28:36 01:33:32 44° 99° (E) 01:38:24 437.125/150
BEESAT 23 Jan 01:32:33 01:36:21 24° 68° (ENE) 01:40:09 436.000
SWISSCUBE 23 Jan 01:34:13 01:38:15 28° 69° (ENE) 01:42:17 437.505
UKube-1 23 Jan 01:36:34 01:39:19 16° 266° (W) 01:42:05 .
YUBILEINY 23 Jan 01:36:39 01:45:32 85° 84° (E) 01:54:17 435.215
CUSAT 1 23 Jan 01:46:04 01:48:37 13° 78° (ENE) 01:51:24 437.405
BEESAT 2 23 Jan 01:57:36 02:01:33 55° 244° (WSW) 02:05:29 435.950
Gurwin Techsat 1B 23 Jan 02:04:50 02:10:03 53° 100° (E) 02:15:13 435.225
PHONESAT 2.4 23 Jan 02:12:29 02:14:31 31° 351° (N) 02:16:33 2401.200-2431.200
ITAMSAT 1 23 Jan 02:19:54 02:21:59 12° 91° (E) 02:24:04 435.822/435.867
Cosmos 2491 23 Jan 02:22:51 02:31:33 85° 276° (W) 02:40:20 435.465 / 435.565
ITUPSAT 1 23 Jan 02:36:22 02:41:06 72° 258° (WSW) 02:45:53 437.325
MOZHAYETS 4 23 Jan 02:39:56 02:44:03 34° 71° (ENE) 02:48:12
M-CUBED/EXP-1 PRIME 23 Jan 02:42:36 02:45:43 20° 65° (ENE) 02:48:41 437.505
AIST 2 23 Jan 02:45:36 02:45:56 10° 44° (NE) 02:46:15 435.215
AO-7 23 Jan 02:54:14 03:00:48 25° 96° (E) 03:07:18 29.400- 29.500
KKS-1 23 Jan 03:00:15 03:03:12 18° 67° (ENE) 03:06:09 437.445
Cosmos 2504 23 Jan 03:01:06 03:07:59 47° 270° (W) 03:14:44 435.465 / 435.565
DANDE 23 Jan 03:04:18 03:06:31 14° 80° (E) 03:09:02 436.750
Oscar 19 23 Jan 03:08:48 03:12:29 20° 294° (WNW) 03:16:08 437.125/150
BEESAT 23 Jan 03:09:46 03:13:57 31° 263° (W) 03:18:09 436.000
SWISSCUBE 23 Jan 03:11:59 03:15:56 26° 264° (W) 03:19:55 437.505
AUBIESAT-1 23 Jan 03:15:54 03:19:48 37° 69° (ENE) 03:23:29 437.475
CUSAT 1 23 Jan 03:24:04 03:29:11 73° 281° (W) 03:35:55 437.405
RS-15 23 Jan 03:33:36 03:40:52 17° 347° (NNW) 03:48:13 29.354- 29.394
CUBESAT XI-V 23 Jan 03:34:13 03:37:36 20° 67° (ENE) 03:40:59 437.345
YUBILEINY 23 Jan 03:36:02 03:41:04 17° 282° (WNW) 03:46:06 435.215
STARS 23 Jan 03:44:44 03:48:14 24° 69° (ENE) 03:51:43 437.465
Gurwin Techsat 1B 23 Jan 03:46:02 03:49:31 18° 296° (WNW) 03:53:00 435.225
PHONESAT 2.4 23 Jan 03:46:37 03:48:38 29° 7° (N) 03:50:39 2401.200-2431.200
ITAMSAT 1 23 Jan 03:56:41 04:01:52 68° 286° (WNW) 04:07:02 435.822/435.867
ISS 23 Jan 04:03:47 04:06:57 47° 38° (NE) 04:10:05 145.825
M-CUBED/EXP-1 PRIME 23 Jan 04:16:02 04:19:59 32° 257° (WSW) 04:23:42 437.505
MOZHAYETS 4 23 Jan 04:17:57 04:21:15 20° 266° (W) 04:24:35
AIST 2 23 Jan 04:20:45 04:25:00 90° 316° (NW) 04:29:14 435.215
Cosmos 2491 23 Jan 04:25:03 04:29:42 15° 296° (WNW) 04:34:22 435.465 / 435.565
BRITE-PL 23 Jan 04:30:35 04:34:00 20° 92° (E) 04:37:14 437.365/2234.400
KKS-1 23 Jan 04:35:19 04:39:26 37° 261° (W) 04:43:35 437.445
DANDE 23 Jan 04:44:44 04:48:25 37° 287° (WNW) 04:53:17 436.750
AO-7 23 Jan 04:45:46 04:54:00 64° 292° (WNW) 05:02:10 29.400- 29.500
AUBIESAT-1 23 Jan 04:51:34 04:54:13 16° 260° (W) 04:56:47 437.475
CUBESAT XI-V 23 Jan 05:10:20 05:14:40 37° 262° (W) 05:19:03 437.345
Cosmos 2499 23 Jan 05:14:49 05:17:54 13° 66° (ENE) 05:20:59 435.465 / 435.565
PHONESAT 2.4 23 Jan 05:20:22 05:22:34 60° 204° (SSW) 05:24:45 2401.200-2431.200
STARS 23 Jan 05:20:46 05:24:26 26° 263° (W) 05:28:07 437.465
CUTE-I 23 Jan 05:30:07 05:32:47 14° 92° (E) 05:35:28 437.470
HORYU 2 23 Jan 05:37:52 05:42:10 46° 100° (E) 05:46:28 437.375
ISS 23 Jan 05:41:24 05:43:06 14° 232° (SW) 05:44:47 145.825
O/OREOS (USA 219) 23 Jan 05:43:28 05:47:51 57° 107° (ESE) 05:52:13 437.305
RS-15 23 Jan 05:51:36 06:00:24 21° 25° (NNE) 06:09:03 29.354- 29.394
GOMX 1 23 Jan 05:56:31 06:00:50 68° 101° (ESE) 06:04:57 467.674
BRITE-PL 23 Jan 06:08:23 06:12:34 32° 290° (WNW) 06:16:29 437.365/2234.400
NOAA 15 23 Jan 06:10:41 06:15:36 37° 98° (E) 06:20:27 137.62
Cubesat XI-IV 23 Jan 06:12:27 06:17:23 37° 98° (E) 06:22:17 437.490
DOVE 4 23 Jan 06:20:17 06:24:15 42° 99° (E) 06:28:11 437.250
GONETS M04 23 Jan 06:24:26 06:32:44 43° 76° (ENE) 06:41:00
LilacSat-2 23 Jan 06:24:59 06:28:50 61° 100° (E) 06:32:40 437.200
STRAND 1 23 Jan 06:29:50 06:34:35 42° 71° (ENE) 06:39:23 437.568
NOAA 18 23 Jan 06:41:10 06:46:10 36° 98° (E) 06:51:09 137.9125
SO-50 23 Jan 06:41:11 06:45:30 35° 114° (ESE) 06:49:45 436.795
AO-7 23 Jan 06:41:56 06:45:07 13° 311° (NW) 06:48:18 29.400- 29.500
CANX-2 23 Jan 06:50:22 06:52:04 12° 91° (E) 06:53:46 2200.000
HO-68 23 Jan 07:01:25 07:06:55 23° 94° (E) 07:12:22 435.675
Cosmos 2499 23 Jan 07:04:52 07:11:59 87° 264° (W) 07:19:06 435.465 / 435.565
CUTE-I 23 Jan 07:07:56 07:13:13 63° 286° (WNW) 07:18:30 437.470
HORYU 2 23 Jan 07:15:47 07:18:18 15° 294° (WNW) 07:20:49 437.375
O/OREOS (USA 219) 23 Jan 07:25:35 07:27:36 13° 303° (WNW) 07:29:38 437.305
CINEMA 3 23 Jan 07:26:30 07:30:39 53° 100° (E) 07:34:57 145.822/145.860
NOAA 15 23 Jan 07:50:54 07:55:08 25° 293° (WNW) 07:59:20 137.62
Cubesat XI-IV 23 Jan 07:52:55 07:57:13 25° 293° (WNW) 08:01:30 437.490
CUTE 1.7 + AOD 2 23 Jan 07:53:59 07:58:15 61° 100° (E) 08:02:28 437.475
PCSat 23 Jan 07:56:56 07:57:46 10° 43° (NE) 07:58:36 145.827
DOVE 4 23 Jan 07:59:38 08:01:33 13° 294° (WNW) 08:03:28 437.250
CUBEBUG 2 23 Jan 08:00:47 08:04:38 29° 97° (E) 08:08:34 437.445
RS-15 23 Jan 08:04:06 08:16:19 61° 54° (NE) 08:28:00 29.354- 29.394
STRAND 1 23 Jan 08:10:16 08:13:55 20° 266° (W) 08:17:34 437.568
FUNcube-1 23 Jan 08:11:09 08:12:58 12° 92° (E) 08:14:48 145.935
GONETS M04 23 Jan 08:21:28 08:29:21 38° 274° (W) 08:37:14
SO-50 23 Jan 08:22:09 08:26:00 25° 309° (NW) 08:29:50 436.795
NOAA 18 23 Jan 08:22:09 08:26:37 27° 293° (WNW) 08:31:05 137.9125
UWE-3 23 Jan 08:22:32 08:26:31 32° 97° (E) 08:30:34 435.000/436.395/437.385
CANX-2 23 Jan 08:24:00 08:28:10 48° 286° (WNW) 08:32:17 2200.000
COMPASS 1 23 Jan 08:27:46 08:31:57 64° 101° (E) 08:36:05 437.405
SEEDS 23 Jan 08:28:22 08:32:38 79° 283° (WNW) 08:36:50 437.485
ZACube-1 23 Jan 08:34:26 08:38:09 26° 96° (E) 08:41:54 437.345
AAUSAT CUBESAT 2 23 Jan 08:35:50 08:39:58 59° 100° (E) 08:44:03 437.432
UNISAT 6 23 Jan 08:47:25 08:50:00 16° 67° (ENE) 08:52:34 437.425
HO-68 23 Jan 08:47:58 08:54:58 59° 290° (WNW) 09:01:56 435.675
TIGRISAT 23 Jan 08:59:11 09:02:16 20° 68° (ENE) 09:05:21 435.000
PRISM 23 Jan 09:00:15 09:04:25 84° 77° (ENE) 09:08:36 437.425
Cosmos 2499 23 Jan 09:02:27 09:03:54 11° 281° (WNW) 09:05:21 435.465 / 435.565
Oscar 11 23 Jan 09:04:38 09:08:51 46° 99° (E) 09:13:01 145.826/435.025
CINEMA 3 23 Jan 09:05:53 09:07:22 12° 294° (WNW) 09:08:51 145.822/145.860
ANTELSAT 23 Jan 09:14:28 09:18:14 31° 71° (ENE) 09:21:59 437.575/2403.000
DELFI C3 23 Jan 09:25:41 09:28:56 24° 96° (E) 09:32:08 145.870
CUTE 1.7 + AOD 2 23 Jan 09:32:35 09:33:31 11° 295° (WNW) 09:34:26 437.475
JAS-2 23 Jan 09:33:53 09:37:50 21° 63° (ENE) 09:42:04 435.910
PCSat 23 Jan 09:36:45 09:42:10 68° 62° (ENE) 09:47:33 145.827
CUBEBUG 2 23 Jan 09:37:40 09:41:04 22° 290° (WNW) 09:44:33 437.445
FUNcube-1 23 Jan 09:45:08 09:49:26 52° 285° (WNW) 09:53:48 145.935
HUMSAT D 23 Jan 09:53:11 09:56:55 28° 97° (E) 10:00:37 437.325/437.525
UWE-3 23 Jan 09:59:28 10:02:46 21° 291° (WNW) 10:06:06 435.000/436.395/437.385
ZACube-1 23 Jan 10:10:40 10:14:18 25° 290° (WNW) 10:18:00 437.345
AAUSAT CUBESAT 2 23 Jan 10:14:19 10:14:52 10° 295° (WNW) 10:15:25 437.432
RS-15 23 Jan 10:17:26 10:28:11 39° 255° (WSW) 10:38:33 29.354- 29.394
NANOSAT C BR1 23 Jan 10:17:45 10:19:43 13° 66° (ENE) 10:21:43 145.865
UNISAT 6 23 Jan 10:22:25 10:26:22 38° 262° (W) 10:30:21 437.425
BY70-1 23 Jan 10:29:31 10:29:49 10° 91° (E) 10:30:06 436.1900
TIGRISAT 23 Jan 10:35:03 10:38:45 29° 263° (W) 10:42:28 435.000
Oscar 11 23 Jan 10:42:15 10:44:33 14° 294° (WNW) 10:46:50 145.826/435.025
ANTELSAT 23 Jan 10:52:03 10:54:58 18° 266° (W) 10:57:55 437.575/2403.000
DELFI C3 23 Jan 11:00:33 11:03:36 21° 290° (WNW) 11:06:37 145.870
QB50P1 23 Jan 11:09:40 11:13:47 59° 75° (ENE) 11:17:54 145.935-145.965
POLYITAN 1 23 Jan 11:14:51 11:19:00 70° 75° (ENE) 11:23:10 437.675
QB50P2 23 Jan 11:16:11 11:20:21 79° 78° (ENE) 11:24:34 145.880/145.840
JAS-2 23 Jan 11:17:22 11:22:27 46° 262° (W) 11:28:03 435.910
PCSat 23 Jan 11:22:17 11:24:54 14° 257° (WSW) 11:27:31 145.827
HUMSAT D 23 Jan 11:29:04 11:32:19 21° 291° (WNW) 11:35:35 437.325/437.525
VELOX 1 23 Jan 11:35:48 11:38:33 16° 94° (E) 11:41:16 145.980
POPSAT HIP 1 23 Jan 11:36:54 11:41:03 64° 259° (W) 11:45:13 437.405
ESTCUBE 1 23 Jan 11:37:22 11:41:49 53° 100° (E) 11:46:13 437.505/2401.250
SPROUT 23 Jan 11:40:38 11:42:39 13° 92° (E) 11:44:39 437.525
DUCHIFAT 1 23 Jan 11:43:33 11:47:40 62° 259° (WSW) 11:51:48 145.980
NANOSAT C BR1 23 Jan 11:51:01 11:55:01 45° 261° (W) 11:59:03 145.865
50 SAT 23 Jan 11:55:20 11:57:44 17° 95° (E) 12:00:07 437.505
BY70-1 23 Jan 11:57:29 12:00:10 26° 289° (WNW) 12:02:41 436.1900
DX 1 23 Jan 11:57:47 11:59:39 12° 93° (E) 12:01:31 434.975-435.025
BUGSAT 1 23 Jan 12:04:46 12:08:49 77° 77° (ENE) 12:12:51 437.445
CUBEBUG 1 23 Jan 12:12:26 12:16:45 77° 102° (ESE) 12:21:03 437.445
CUSAT 1 23 Jan 12:20:44 12:24:19 14° 60° (ENE) 12:27:46 437.405
AO-85 23 Jan 12:24:41 12:28:41 27° 113° (ESE) 12:32:29 145.980
Cosmos 2491 23 Jan 12:36:36 12:44:52 43° 76° (ENE) 12:53:05 435.465 / 435.565
AISAT 23 Jan 12:37:35 12:41:59 88° 291° (WNW) 12:46:21 437.250
YUBILEINY 23 Jan 12:41:13 12:46:51 19° 79° (E) 12:52:29 435.215
Oscar 19 23 Jan 12:42:44 12:47:44 50° 72° (ENE) 12:52:46 437.125/150
TISAT 1 23 Jan 12:57:01 12:58:47 12° 93° (E) 13:00:32 437.305
JUGNU 23 Jan 13:09:52 13:12:31 13° 172° (S) 13:15:11 437.505
VELOX 1 23 Jan 13:11:03 13:15:07 38° 288° (WNW) 13:19:10 145.980
SPROUT 23 Jan 13:14:42 13:18:45 44° 286° (WNW) 13:22:48 437.525
ESTCUBE 1 23 Jan 13:15:56 13:18:07 13° 295° (WNW) 13:20:19 437.505/2401.250
Gurwin Techsat 1B 23 Jan 13:23:18 13:28:32 66° 74° (ENE) 13:33:49 435.225
UKube-1 23 Jan 13:24:08 13:28:27 84° 282° (WNW) 13:32:45 .
50 SAT 23 Jan 13:28:03 13:30:52 22° 289° (WNW) 13:33:40 437.505
AIST 1 23 Jan 13:31:39 13:35:53 51° 93° (E) 13:40:06
DX 1 23 Jan 13:31:54 13:36:04 48° 287° (WNW) 13:40:13 434.975-435.025
ITAMSAT 1 23 Jan 13:35:12 13:38:16 16° 64° (ENE) 13:41:22 435.822/435.867
DANDE 23 Jan 13:41:06 13:47:16 23° 69° (ENE) 13:53:31 436.750
Cosmos 2504 23 Jan 13:43:14 13:50:05 27° 85° (E) 13:56:38 435.465 / 435.565
AO-7 23 Jan 13:50:40 13:57:34 30° 59° (ENE) 14:04:28 29.400- 29.500
CUSAT 1 23 Jan 13:59:44 14:07:43 74° 80° (E) 14:14:39 437.405
AO-85 23 Jan 14:04:52 14:09:01 30° 306° (NW) 14:12:55 145.980
Oscar 19 23 Jan 14:23:59 14:27:18 17° 267° (W) 14:30:37 437.125/150
TISAT 1 23 Jan 14:30:37 14:34:36 45° 287° (WNW) 14:38:36 437.305
Cosmos 2491 23 Jan 14:33:39 14:41:29 38° 274° (W) 14:49:20 435.465 / 435.565
YUBILEINY 23 Jan 14:33:43 14:42:32 78° 277° (W) 14:51:26 435.215
ITUPSAT 1 23 Jan 14:39:32 14:43:56 35° 98° (E) 14:48:19 437.325
SRMSAT 23 Jan 14:47:03 14:48:19 11° 167° (SSE) 14:49:35 437.500
